sat.trackr.live / text

‹ back to catalog

STARLINK-35380

NORAD 65905 · 2025-224Z

PAYLOAD ACTIVE UNKNOWN

§ Identity

Operator
Country
US
Launch date
2025-10-07
Launch site
AFETR
Launch vehicle
Mass (kg)
RCS (m²)

Purposes: comms

External: N2YO · Heavens-Above · Gunter

§ Orbital elements

Epoch: 2026-09-19T12:14:17.913984Z

Period
93.85 min
Inclination
53.1571°
Eccentricity
0.0000977
Mean motion
15.34400466 rev/d
Perigee alt
462.0 km
Apogee alt
463.4 km
Semi-major
6,840.8 km
B*
7.0260e-4
RAAN
190.0310°
Arg perigee
86.7018°
Mean anomaly
273.4096°
Rev number
5,451

§ Raw data

STARLINK-353801 65905U 25224Z   26262.50992956  .00023437  00000+0  70260-3 0  99992 65905  53.1571 190.0310 0000977  86.7018 273.4096 15.34400466 54515

JSON: /api/v1/satellites/65905 · /tle

For live sub-satellite position, see the globe view (requires WebGL).

§ Visibility from observer

Set your observer location to see the next 7 days of passes ≥ 10°. The values pass through the URL so the page stays shareable.

No JS? Fill the form by hand. The geolocation button needs JavaScript.